Temp
24 24 25 24 23 19 21 23 26 27 29 31 31 32 32 32 32 30 30 31 32 30 30 29 30 30 30 29 28 27 27 26 25 25 25 24 24 23 23 23 23 23 22 22 22 21 21 22 22
24 25 24 21 21 20 20 24 27 28 30 30 32 33 32 33 31 27 28 31 33 32 30 29 30 30 30 30 29 28 27 27 26 25 25 25 24 24 24 24 23 23 23 23 22 21 21 21 21
24 24 21 21 19 20 22 26 27 29 30 31 31 33 32 32 30 29 31 28 33 32 31 30 29 30 30 30 29 28 27 27 26 26 25 25 25 24 24 24 24 24 23 23 22 21 21 22 22
24 22 20 21 21 22 25 26 27 28 30 32 33 33 33 33 32 32 32 29 33 31 31 30 29 30 30 30 30 29 28 27 27 26 26 26 25 25 24 24 24 24 24 23 23 22 22 22 22
23 21 20 20 21 24 27 27 27 29 29 31 33 34 32 33 32 30 30 31 32 31 31 30 29 30 31 30 30 29 28 27 27 26 26 26 26 25 24 24 24 24 24 23 23 22 22 21 21
22 21 20 22 24 26 27 28 28 28 30 31 33 33 30 30 28 27 29 30 33 32 30 29 28 30 30 30 30 29 29 28 27 27 27 27 27 25 25 25 24 24 24 23 23 23 21 21 20
22 20 20 22 24 25 27 29 29 29 29 30 34 31 30 30 29 26 27 28 29 31 29 28 26 29 30 30 30 29 29 28 27 27 27 27 27 26 25 25 25 24 24 23 23 23 22 21 20
21 20 21 22 24 24 27 29 29 30 31 32 35 31 29 31 29 27 26 26 25 26 28 28 26 28 29 29 29 29 29 29 28 27 27 27 26 26 25 25 24 24 24 23 23 23 22 22 20
24 19 19 22 24 26 27 27 29 30 30 31 33 34 30 32 30 29 27 26 25 25 26 27 26 27 29 29 29 29 28 28 28 27 26 26 25 25 24 24 24 24 23 23 23 22 21 21 20
20 18 21 24 25 25 26 27 28 28 28 29 30 31 32 31 30 28 27 26 25 24 25 26 26 27 28 28 28 28 28 28 27 27 26 25 25 25 24 24 24 24 23 23 23 22 21 21 21
20 21 23 24 25 26 26 27 28 27 27 27 29 31 30 30 31 29 28 29 26 25 24 24 24 25 28 27 28 28 28 28 27 27 26 25 25 24 23 23 23 23 23 22 22 22 20 21 21
20 22 23 24 25 25 25 27 27 27 27 29 29 30 30 29 24 30 25 26 28 28 27 27 24 23 23 27 28 28 28 28 28 27 26 25 24 23 23 23 23 23 23 22 22 22 21 22 22
20 21 22 23 23 24 26 26 26 27 28 29 29 30 29 27 27 28 24 27 28 28 27 28 27 25 23 22 26 28 28 28 28 28 26 26 25 24 23 23 23 23 22 22 22 21 21 21 22
19 20 20 21 22 23 24 26 27 28 29 29 29 30 29 29 26 25 26 26 29 29 28 29 29 31 28 25 24 29 28 28 28 28 28 26 25 25 24 23 23 22 22 22 21 22 21 21 21
19 19 19 21 22 23 24 24 25 28 28 28 29 29 29 29 29 26 26 25 28 30 31 31 31 32 30 25 25 28 28 27 27 28 27 26 25 24 23 23 23 23 22 21 21 21 21 20 21
18 18 17 20 21 23 23 23 25 26 26 27 27 29 29 28 29 29 31 28 29 31 29 30 30 27 26 25 27 30 28 28 28 27 26 26 25 25 24 22 22 22 22 21 21 21 20 20 20
16 15 17 18 20 22 22 22 25 25 25 26 27 27 28 29 27 30 31 31 30 27 30 30 27 26 25 27 30 31 30 29 28 27 27 26 25 25 24 23 22 22 22 21 20 20 20 20 20
16 17 18 19 21 21 20 20 22 23 23 23 25 26 27 28 28 28 31 32 28 30 30 28 30 31 32 31 29 28 28 28 28 27 26 26 26 26 25 23 22 21 21 21 20 20 20 20 21
18 18 18 19 21 21 19 20 20 21 21 21 21 23 25 26 28 28 30 31 32 32 29 29 28 31 29 29 26 24 24 27 27 26 26 26 26 26 26 24 22 21 21 21 21 20 19 19 21
19 18 18 20 21 21 20 20 21 21 21 21 21 22 23 24 26 28 29 29 29 31 31 31 29 28 29 28 27 26 25 26 27 27 27 26 26 26 25 25 23 21 20 21 21 21 20 20 21
17 17 17 18 20 20 20 19 20 21 21 21 21 21 21 22 23 25 28 28 29 28 30 31 31 29 28 28 26 26 26 26 26 26 26 27 26 26 25 25 23 21 21 21 22 21 20 20 20
16 18 18 18 16 15 20 17 19 20 20 20 20 20 20 21 22 23 25 25 26 28 30 30 29 27 28 28 28 27 27 25 28 28 28 27 27 26 25 25 24 22 22 22 22 22 21 21 20
17 18 17 17 16 15 17 15 18 19 19 20 21 20 20 21 20 21 23 24 28 28 28 30 30 28 28 28 29 28 26 28 28 27 27 27 27 26 26 25 23 22 22 22 22 21 21 21 21
18 16 15 15 14 15 17 16 18 17 19 20 21 20 22 21 22 21 22 24 25 29 28 28 27 29 29 29 29 28 28 27 25 26 25 25 25 24 24 24 23 23 22 22 21 21 21 21 21
16 12 10 11 12 14 17 16 18 19 19 16 15 15 15 16 18 19 20 21 24 25 27 28 27 26 28 28 28 28 27 27 26 26 25 25 23 22 22 23 22 22 22 21 21 21 21 21 20
14 14 11 11 12 13 15 14 17 19 16 15 16 16 16 15 15 15 17 21 23 24 25 26 26 25 27 27 28 27 26 25 26 26 25 25 23 23 23 22 22 21 21 21 21 21 21 20 19
15 12 15 13 13 12 12 14 16 17 15 15 15 16 16 15 15 15 17 18 21 23 25 25 25 24 26 27 27 25 25 24 25 25 24 24 23 22 22 21 21 21 21 20 21 20 20 20 19
15 16 13 10 12 12 13 14 15 15 14 14 15 15 15 15 15 15 15 17 18 21 24 25 26 27 27 26 25 23 23 24 24 24 23 22 22 22 21 20 21 21 21 20 20 20 20 19 19
14 13 12 11 11 11 11 13 13 13 12 12 14 15 14 15 14 14 15 16 17 19 20 25 24 24 24 25 25 24 24 23 23 23 22 22 21 21 20 20 20 21 20 20 20 20 19 19 19
15 13 12 9 11 11 11 13 14 12 12 13 14 14 14 15 13 14 14 16 16 18 20 22 23 24 25 25 24 24 23 23 22 21 21 21 20 20 20 20 20 20 20 19 20 19 19 19 19
Height
770 770 770 770 798 807 809 789 759 757 751 730 727 732 730 719 729 757 713 721 725 737 745 750 752 755 757 761 764 767 772 775 779 780 782 784 787 789 791 793 794 796 797 799 799 800 800 800 800
770 771 771 776 807 819 807 773 759 758 743 729 725 719 723 725 706 713 717 720 725 732 743 749 752 754 757 760 765 768 771 773 777 780 782 783 785 788 790 792 794 796 797 798 800 800 800 800 800
769 772 778 789 807 813 796 761 756 746 735 734 732 709 713 716 706 702 708 714 719 730 739 746 751 752 755 759 765 768 772 774 776 778 781 782 785 786 788 790 792 793 797 797 799 800 800 800 799
770 773 780 797 798 782 765 754 750 748 730 720 717 724 700 692 696 699 702 713 715 728 736 743 748 750 752 755 760 767 771 773 775 777 780 781 783 785 787 788 791 793 795 797 798 799 799 799 800
770 776 797 801 788 768 751 748 747 747 740 722 713 718 711 699 695 697 704 706 714 726 734 741 746 748 751 754 757 763 768 772 774 776 778 780 782 784 786 787 789 791 793 794 796 797 798 799 800
776 777 801 797 777 757 747 741 743 743 733 721 716 715 716 704 698 700 704 707 713 722 733 741 745 749 751 754 756 760 765 769 772 774 776 778 780 782 784 786 787 788 791 793 794 795 797 799 799
777 787 794 784 773 760 746 734 742 739 736 728 705 723 719 710 711 712 708 710 715 723 732 740 745 747 751 754 756 759 763 766 769 772 774 776 777 780 782 784 785 787 790 792 792 794 796 797 798
768 778 783 779 772 764 739 736 734 736 732 714 701 721 725 709 712 719 720 719 724 727 732 736 741 743 747 752 755 758 760 763 766 769 772 773 775 778 780 782 784 786 787 789 790 792 793 795 797
761 785 787 773 767 751 737 745 731 725 727 722 708 699 696 701 708 717 724 726 727 731 735 738 741 740 743 748 751 757 761 763 765 767 770 772 772 774 778 779 782 784 786 789 789 791 791 793 794
770 782 772 757 753 752 742 739 735 736 730 728 720 706 690 705 706 714 717 722 723 730 736 740 742 742 742 746 748 752 757 759 762 763 765 768 770 772 775 778 780 782 784 786 788 789 790 791 791
762 764 756 752 749 747 744 735 731 742 738 730 732 720 716 711 710 709 714 715 717 727 729 736 743 746 743 745 747 750 752 754 757 758 761 763 767 769 771 774 775 778 781 782 784 785 786 787 788
769 755 755 749 746 747 747 735 734 734 728 717 724 721 716 712 721 710 712 713 715 720 724 732 741 745 750 746 745 746 749 751 750 752 756 759 762 765 767 769 771 773 776 777 780 781 782 783 785
763 758 751 748 745 742 741 737 730 725 716 712 713 718 719 716 712 717 719 708 715 717 722 728 737 741 750 754 746 743 745 746 745 748 752 753 755 758 762 763 766 768 771 773 775 777 778 779 781
758 757 755 747 745 744 745 734 731 707 711 711 704 713 713 713 710 713 716 716 715 716 717 726 727 725 744 744 746 739 742 743 742 743 744 748 750 751 756 758 760 763 766 769 770 772 773 775 776
757 761 752 746 743 745 738 738 727 709 709 709 703 702 708 708 712 709 709 705 708 713 715 719 720 724 732 738 742 735 739 741 738 738 739 742 744 746 750 753 755 757 760 764 767 769 769 771 772
766 762 768 749 745 738 740 739 718 713 715 712 708 694 702 704 701 708 708 710 704 703 709 711 715 721 727 732 732 730 732 732 732 734 735 737 740 742 745 748 749 752 755 758 761 764 765 766 767
773 781 769 760 741 740 741 731 715 712 714 712 707 703 692 700 699 697 699 706 708 710 704 706 710 713 718 718 719 720 722 725 725 728 729 732 735 737 738 741 744 746 750 753 755 758 761 761 763
779 774 765 762 746 741 744 736 727 719 719 716 708 701 696 688 696 693 693 693 702 705 708 704 699 702 705 708 709 714 717 718 719 721 724 727 729 731 733 735 738 740 745 747 751 753 755 757 759
762 762 761 752 739 740 744 735 728 722 720 720 714 707 700 693 681 687 688 688 687 688 694 699 702 694 696 700 704 709 710 711 714 717 719 720 724 726 728 730 732 735 738 740 745 748 751 753 757
756 760 759 745 736 738 741 730 720 720 719 716 713 708 703 695 686 681 683 683 684 685 686 687 689 693 689 691 694 697 700 703 708 713 713 715 717 719 722 724 724 728 732 736 740 743 747 750 753
761 764 763 757 739 734 737 731 721 712 713 711 707 704 698 695 688 678 676 675 676 678 680 680 680 682 684 684 689 694 699 702 704 707 707 708 709 712 714 716 719 722 727 729 734 738 741 744 749
766 753 754 752 756 765 737 748 725 718 712 711 706 702 697 691 685 679 672 669 669 668 670 672 674 676 676 679 683 686 689 692 695 697 699 703 704 704 707 708 712 717 721 724 729 734 737 740 743
760 751 755 753 755 756 744 758 719 719 716 707 702 698 692 686 683 678 671 664 659 660 663 665 665 669 673 676 678 680 683 686 688 693 696 699 699 700 701 702 708 713 718 722 727 731 733 735 739
749 757 756 751 754 757 742 752 721 725 714 703 696 694 688 683 677 672 667 661 655 651 654 655 657 660 665 668 671 674 677 680 683 687 691 692 694 694 695 699 706 712 716 720 725 728 729 732 735
755 770 787 774 768 750 734 739 716 710 704 711 713 705 699 692 682 674 667 659 654 652 647 648 650 653 657 662 663 666 669 672 675 680 684 687 689 690 692 699 705 710 714 718 722 724 727 729 733
760 762 784 777 765 760 739 740 714 703 709 708 703 701 693 688 682 675 669 658 651 646 643 642 642 644 648 651 654 657 661 666 669 673 678 682 684 686 691 697 703 708 712 715 719 721 725 728 731
754 764 748 760 759 761 747 725 707 703 708 702 700 691 688 684 676 672 664 656 646 639 634 630 634 637 641 645 648 651 656 660 664 668 674 679 682 686 691 696 702 706 709 713 716 720 724 727 730
745 739 758 770 761 752 735 727 722 710 710 704 696 689 682 675 670 666 661 651 642 634 626 621 623 626 631 637 642 646 650 655 660 666 671 676 680 685 690 697 699 704 707 711 715 719 722 725 728
746 748 749 756 762 759 752 728 713 710 711 704 693 684 682 673 667 662 656 649 645 636 628 614 617 619 624 630 636 643 649 654 659 664 668 673 678 683 689 695 697 701 706 710 714 718 721 724 728
734 740 746 768 756 749 747 719 704 707 701 697 684 678 674 665 659 654 651 644 639 632 621 615 613 616 622 628 636 642 647 652 657 663 667 673 678 684 690 693 696 701 706 711 714 717 721 723 726
Wind_Speed
11 5 4 3 3 4 4 7 5 10 10 4 9 8 10 6 7 5 18 31 38 45 40 37 35 34 33 31 30 28 25 23 20 20 19 17 16 15 14 12 11 10 10 9 9 8 8 8 7
7 2 1 2 3 0 6 6 19 4 10 12 17 7 4 3 4 10 22 33 46 47 42 38 36 36 34 32 30 28 27 25 23 20 19 18 16 15 13 12 10 9 9 8 7 8 8 8 7
5 2 3 3 4 6 6 5 5 6 13 13 9 7 8 6 2 20 17 42 52 48 44 40 38 37 36 33 30 28 27 25 24 22 19 18 17 16 14 13 12 11 9 9 9 9 8 8 7
2 4 3 2 11 7 9 9 9 14 17 15 6 6 1 14 20 23 43 51 53 50 46 43 40 39 37 35 33 29 27 26 24 23 20 19 17 16 15 14 13 12 11 11 11 10 10 9 7
2 2 1 3 9 7 10 7 8 14 8 16 13 5 8 1 18 40 48 53 54 50 46 44 42 39 37 36 34 31 29 27 25 23 21 19 17 16 16 14 14 13 12 12 12 11 11 10 9
1 2 2 7 14 9 7 10 6 10 12 16 8 3 2 5 27 41 46 50 50 51 47 44 41 38 36 34 33 31 29 28 26 24 23 21 19 18 18 16 15 15 14 13 12 11 11 10 10
4 2 5 5 12 14 13 5 5 5 6 11 6 5 2 7 8 15 32 43 47 48 47 44 41 38 34 33 32 31 29 28 27 25 24 23 22 21 20 18 17 17 16 16 14 13 12 12 11
4 4 4 6 11 12 8 4 4 4 17 8 5 5 6 6 16 13 18 29 31 40 44 45 42 39 37 34 31 30 29 28 27 25 24 24 23 23 22 21 20 19 19 19 17 16 15 14 13
1 2 8 9 11 13 12 7 9 10 7 10 13 3 3 19 32 28 22 22 24 30 36 40 41 40 38 35 33 30 28 27 26 25 25 25 26 26 25 23 22 22 21 21 19 18 17 15 15
5 5 8 6 9 13 18 19 18 13 16 7 18 14 23 22 27 20 18 16 25 26 31 36 39 39 37 35 33 32 31 30 30 29 29 30 29 27 26 25 24 23 23 23 22 21 20 18 19
5 14 10 8 7 9 16 23 15 12 15 11 8 17 7 2 15 18 15 28 24 24 28 32 35 36 36 35 34 34 33 33 33 32 32 32 30 28 28 27 26 26 26 26 25 24 24 23 22
6 7 8 10 14 15 21 21 24 17 19 16 5 9 6 6 10 13 14 24 29 27 30 26 28 27 31 34 37 36 36 37 36 35 34 33 32 31 31 30 30 29 29 30 28 28 27 26 25
6 9 8 10 12 17 17 23 24 23 19 16 13 7 7 11 12 6 4 27 27 26 27 26 24 18 19 30 36 36 39 40 37 35 36 35 35 35 34 33 32 33 31 33 31 31 30 29 27
5 6 8 7 9 6 13 21 19 31 16 17 20 4 5 5 10 11 17 19 26 30 31 32 30 15 18 35 39 33 36 36 34 34 35 37 36 36 37 36 35 35 33 34 33 33 32 31 30
7 8 10 6 4 4 5 15 20 21 11 15 20 14 7 8 7 16 28 32 32 33 34 31 29 31 41 51 47 31 34 36 33 33 34 33 32 33 34 34 35 37 35 36 34 33 32 32 31
6 4 3 4 7 5 8 24 21 14 9 16 14 20 8 9 9 14 22 20 28 37 38 36 41 48 53 53 46 34 36 33 33 33 34 32 32 31 31 32 33 33 34 36 35 34 34 32 30
3 5 7 7 7 6 6 16 11 7 10 17 17 15 18 8 9 19 17 24 32 29 44 45 48 50 59 53 44 41 38 36 36 34 33 33 31 30 32 34 35 31 31 36 37 36 34 31 29
6 5 6 4 5 2 10 15 7 7 8 10 14 16 17 17 11 19 27 27 21 26 35 32 53 50 44 44 39 41 40 38 36 34 34 35 31 30 32 36 36 33 32 35 34 35 34 31 29
9 12 14 10 7 2 9 14 12 6 7 9 10 13 15 17 21 16 25 25 27 31 22 25 37 46 42 41 36 33 38 43 40 38 37 35 32 31 34 37 36 35 35 36 36 34 33 31 27
6 6 6 4 6 8 7 17 15 7 7 9 11 11 13 13 15 20 20 25 28 34 37 31 29 42 44 43 42 32 38 42 39 36 33 31 33 34 35 37 39 37 34 35 34 35 23 26 27
7 6 12 15 12 4 5 15 16 10 5 7 10 10 10 11 14 18 18 19 30 29 32 32 35 43 48 46 38 28 23 18 21 29 30 30 31 34 35 37 38 35 36 36 38 35 32 21 25
5 9 11 13 8 4 3 15 15 11 12 6 11 10 10 13 14 13 15 13 21 31 32 29 33 43 47 45 39 35 30 22 30 31 29 24 26 25 26 34 35 35 35 35 33 31 32 26 17
6 7 7 7 10 4 12 5 15 5 13 17 14 11 10 10 9 12 15 18 29 27 25 27 32 42 40 36 36 39 31 33 33 30 25 26 30 27 27 32 32 31 31 30 25 24 25 28 21
4 4 8 5 3 10 12 6 17 8 8 13 11 10 14 12 13 10 15 24 26 27 25 27 37 43 43 41 40 39 37 35 30 26 23 23 23 26 27 29 27 26 28 27 23 23 24 23 22
4 5 5 4 1 10 7 8 19 5 10 5 5 10 13 15 15 17 15 10 19 25 28 27 35 38 42 42 42 42 41 39 34 32 25 21 21 25 25 25 24 26 26 21 20 20 21 22 20
5 5 4 5 2 7 9 6 8 1 4 4 4 7 8 14 13 16 18 17 17 25 30 34 33 37 42 44 44 43 43 38 35 30 23 21 28 28 26 25 25 22 21 18 17 15 18 18 17
4 5 8 6 11 6 4 7 8 5 4 7 10 10 12 10 14 16 19 17 23 28 30 33 34 35 38 39 40 40 40 36 31 27 21 25 26 28 27 24 21 19 17 16 14 14 16 15 15
8 3 2 1 3 5 5 7 7 7 9 12 13 14 16 13 12 15 15 18 28 33 31 32 33 33 34 35 33 32 28 24 25 23 23 25 24 26 23 23 21 21 17 17 14 16 16 15 13
5 3 2 3 5 3 5 5 5 6 8 10 13 15 14 14 11 12 14 18 25 29 32 27 27 25 23 22 21 22 22 22 22 23 24 26 26 23 24 24 20 18 16 16 18 18 16 15 15
12 9 5 4 4 4 2 9 3 8 11 7 14 16 16 15 9 11 13 14 19 22 31 22 19 19 23 26 27 25 23 23 22 24 25 24 23 21 22 19 18 19 19 21 18 16 16 16 19
Wind_Direction
324 308 315 52 57 67 248 252 248 271 340 290 297 283 235 157 157 207 153 161 161 164 164 164 161 157 154 152 150 149 150 149 152 148 145 144 143 141 142 143 143 146 144 146 145 148 147 141 137
332 7 30 89 108 231 263 232 252 327 264 310 311 275 265 203 136 124 133 168 165 162 166 168 165 162 159 156 156 156 158 157 159 158 157 155 155 154 153 155 156 157 156 155 158 159 154 145 142
329 311 86 133 173 197 240 228 255 266 289 288 292 181 177 175 84 146 174 168 163 164 168 171 170 165 164 161 162 163 165 166 166 166 168 166 167 164 166 169 171 170 176 175 175 175 168 162 160
355 16 13 128 241 250 240 285 308 307 300 287 250 279 108 194 164 175 164 164 161 166 170 174 173 170 167 166 167 171 173 175 174 174 177 179 178 178 179 181 183 184 186 188 186 184 182 182 176
267 90 198 247 256 253 264 270 270 273 270 282 309 214 151 262 149 154 161 161 163 168 173 177 177 173 170 171 171 176 181 183 183 182 185 187 189 190 192 192 194 196 198 199 197 194 194 194 198
302 127 147 236 255 265 272 267 283 272 280 285 315 104 54 112 139 155 160 161 167 170 176 180 180 176 173 175 175 179 185 189 191 191 193 196 200 202 202 203 205 206 210 211 208 209 209 213 213
168 110 223 234 270 286 270 305 273 296 291 293 276 93 337 36 119 147 155 164 169 173 177 181 184 179 178 180 180 183 188 194 197 199 202 204 207 210 212 212 213 214 216 218 217 220 217 224 228
168 148 232 225 254 273 275 299 305 330 308 308 277 156 172 157 131 130 139 156 162 175 180 184 186 182 181 184 187 190 194 197 202 207 211 212 213 216 220 220 220 221 222 223 224 225 224 230 234
283 185 227 226 241 259 303 316 301 293 325 330 313 124 127 150 144 142 148 152 167 177 186 189 190 188 186 187 190 196 201 204 208 212 218 220 219 221 224 225 226 227 228 230 229 231 229 233 238
187 200 223 228 241 285 302 297 299 326 331 355 340 343 118 153 140 137 155 170 165 179 192 197 197 195 191 192 194 199 204 208 213 215 219 223 226 226 229 231 231 232 232 234 234 234 234 236 241
220 240 245 267 275 272 289 294 304 312 299 299 339 335 328 138 169 158 162 180 168 186 182 196 205 206 197 198 200 204 207 212 217 220 223 227 229 229 230 231 232 233 234 234 234 233 235 237 241
258 267 259 267 263 268 274 287 285 284 270 282 266 275 282 193 297 181 159 157 162 176 194 202 209 210 213 206 208 210 214 217 220 222 225 228 231 231 233 232 234 236 236 237 235 235 237 240 243
257 273 271 262 258 254 261 266 271 280 277 283 283 257 226 211 209 307 87 146 146 162 180 189 200 200 240 234 220 217 220 223 224 227 231 232 233 235 236 236 236 238 238 239 238 238 238 241 244
294 299 290 271 268 273 265 268 275 270 282 284 285 214 248 162 183 152 167 178 185 178 174 181 182 164 235 247 232 219 226 228 227 230 234 235 237 240 241 240 239 239 239 242 241 241 241 242 245
306 310 312 278 251 265 330 285 256 270 312 274 276 273 233 232 169 176 191 183 184 191 203 213 215 222 202 238 231 222 228 226 228 233 236 235 238 240 243 242 241 242 242 244 244 243 244 245 247
323 304 320 320 3 285 168 264 263 281 292 289 290 291 245 221 237 189 198 234 205 196 195 198 199 195 213 219 220 225 230 230 233 236 240 239 236 238 240 242 241 240 239 241 240 239 239 242 246
318 262 270 315 238 228 175 267 283 289 265 268 271 277 290 243 228 253 246 196 211 221 202 206 201 206 211 210 215 220 227 231 234 235 240 243 238 239 241 244 245 238 234 235 238 236 236 235 240
250 267 264 288 299 60 288 282 299 310 322 286 286 282 275 283 235 227 247 258 205 214 228 212 198 203 211 213 214 218 221 226 230 233 237 241 241 242 245 245 244 240 232 232 231 231 233 232 238
253 261 270 272 243 279 277 286 288 289 307 307 308 305 286 276 281 220 226 237 260 272 255 234 232 212 212 207 209 212 218 226 228 230 234 235 239 243 246 245 245 240 232 228 229 230 230 228 232
296 271 286 285 291 289 266 278 279 264 266 264 273 284 286 277 276 271 237 234 239 253 262 263 248 227 210 205 208 208 212 220 223 228 233 234 237 237 237 242 244 236 224 225 227 226 218 225 220
353 360 343 318 293 270 290 283 291 281 248 288 285 271 279 268 271 270 262 235 241 238 244 251 247 223 210 207 204 202 211 215 223 234 238 240 242 243 242 245 239 233 226 223 226 228 220 204 210
331 332 329 332 341 297 288 283 278 293 295 260 278 281 277 288 288 279 266 255 237 237 240 238 236 213 204 203 203 204 209 206 226 237 244 244 247 250 253 240 233 233 227 223 224 227 226 218 196
274 313 318 290 288 319 283 263 282 306 292 299 278 267 276 273 274 279 279 257 248 244 238 235 231 218 210 208 213 217 217 227 234 240 249 252 252 260 255 232 226 226 222 220 221 221 222 220 214
327 349 307 264 216 266 271 216 274 246 264 273 292 308 299 306 295 284 271 277 261 249 241 229 219 215 217 219 220 225 229 232 230 238 239 242 251 243 226 219 217 217 218 222 225 227 223 216 219
79 56 326 316 289 256 203 233 254 260 276 26 356 334 329 330 329 323 309 290 278 267 247 225 220 216 218 220 223 227 232 234 233 233 228 236 226 208 205 201 203 205 209 217 225 219 219 216 208
215 167 179 280 318 306 308 250 245 317 87 340 318 298 323 323 323 310 306 298 282 271 248 228 213 213 215 219 226 231 233 230 232 228 224 232 216 201 192 196 197 201 210 213 212 209 217 206 207
234 172 204 201 251 257 240 284 306 27 327 325 303 324 312 305 315 312 308 317 308 286 252 227 221 222 223 224 229 229 230 226 225 223 221 220 212 195 183 187 190 196 198 197 189 196 194 198 199
187 218 266 16 270 243 253 263 246 312 315 310 319 318 306 304 309 309 304 310 319 307 262 240 230 226 232 227 224 220 215 216 210 204 202 205 199 187 189 192 193 192 189 196 195 195 189 193 195
267 195 168 128 174 234 283 250 202 247 258 278 294 305 293 285 282 291 298 306 314 310 304 248 239 222 220 226 202 197 186 191 196 204 198 196 188 185 185 188 187 184 183 186 183 183 185 188 189
258 266 175 151 230 237 219 264 211 222 241 264 293 299 283 280 278 292 292 304 312 306 305 235 210 191 192 185 181 179 183 185 186 188 181 177 177 181 184 178 173 173 174 172 178 182 188 195 196